[[{"header":{"parameterUnit":"m.s-1","parameterCategory":1,"la1":30.2991,"la2":30.254,"lo1":-89.0895,"lo2":-89.0444,"dy":0.0017,"dx":0.0017,"nx":28,"ny":28,"refTime":"2024-03-17T21:00:00:Z","depth":0,"parameterNumber":2,"parameterNumberName":"U-component_of_WINDS"},"data":[0,0,0,0,0,0,0,0,0,0,0,0,0,0,0,0,0,0,0,0,0,0,0,0,0,0,0,0,0,0,0,0,0,0,0,0,0,0,0,0,0,0,0,0,0,0,0,0,0,0,0,0,0,0,0,0,0,0,-0.8644,-0.8644,0,-0.8654,-0.8654,-0.8654,-0.8634,-0.8633,-0.8633,-0.8632,-0.8643,-0.8644,-0.8645,0,0,0,0,0,0,0,0,0,0,0,0,0,-0.8608,-0.8609,-0.8644,-0.8644,-0.8645,-0.8654,-0.8654,-0.8654,-0.8634,-0.8633,-0.8632,-0.8632,-0.8643,-0.8644,-0.8645,0,0,0,0,0,0,0,0,0,0,0,0,0,-0.8621,-0.8609,-0.8644,-0.8636,-0.8635,-0.8654,-0.8654,-0.8654,-0.8634,-0.8633,-0.8632,-0.8631,-0.8642,-0.8644,-0.8645,-0.8673,0,0,-0.8649,-0.865,0,0,0,0,0,0,0,0,-0.8621,-0.8623,-0.8637,-0.8636,-0.8635,-0.8642,-0.8645,-0.8661,-0.8635,-0.8635,-0.8632,-0.8631,-0.8643,-0.8645,-0.8649,-0.8674,-0.8674,-0.8649,-0.865,-0.8651,-0.8651,0,0,0,0,0,0,0,-0.862,-0.8622,-0.8648,-0.8637,-0.8636,-0.8631,-0.8632,-0.8648,-0.8644,-0.8634,-0.8633,-0.8634,-0.8643,-0.8647,-0.8649,-0.8675,-0.8649,-0.865,-0.8651,-0.8652,-0.8723,-0.8724,0,0,0,0,0,0,-0.862,-0.8622,-0.8648,-0.8648,-0.8625,-0.8633,-0.8633,-0.8641,-0.8644,-0.8644,-0.8635,-0.8633,-0.8646,-0.8647,-0.8649,-0.8682,-0.8651,-0.8652,-0.8653,-0.8722,-0.8723,-0.8724,0,0,0,0,0,0,-0.8619,-0.8622,-0.8647,-0.8635,-0.8637,-0.8634,-0.8643,-0.8641,-0.8646,-0.8645,-0.8644,-0.8641,-0.8645,-0.8647,-0.8667,-0.8682,-0.8653,-0.8654,-0.872,-0.8722,-0.8723,-0.8749,0,0,0,0,0,0,-0.8618,-0.8622,-0.8633,-0.8635,-0.8638,-0.8666,-0.8644,-0.8642,-0.8648,-0.8646,-0.865,-0.8649,-0.8644,-0.8665,-0.8669,-0.8684,-0.8655,-0.8719,-0.8721,-0.8723,-0.8747,-0.8752,-0.8755,0,0,0,0,0,-0.8617,-0.864,-0.8634,-0.8637,-0.8652,-0.8667,-0.8668,-0.8662,-0.865,-0.8661,-0.8659,-0.8649,-0.868,-0.8668,-0.8671,-0.8687,-0.8718,-0.872,-0.8723,-0.8745,-0.8751,-0.8755,0,0,0,0,0,0,-0.8641,-0.8641,-0.8633,-0.8658,-0.8662,-0.8663,-0.8677,-0.8668,-0.8676,-0.8674,-0.8666,-0.8667,-0.8688,-0.8689,-0.8676,-0.8714,-0.8697,-0.87,-0.8713,-0.8718,-0.8722,-0.8722,-0.8656,0,0,0,0,0,-0.8649,-0.8661,-0.866,-0.8682,-0.8684,-0.868,-0.8686,-0.8681,-0.8685,-0.8687,-0.8688,-0.8693,-0.8703,-0.871,-0.872,-0.8747,-0.8747,-0.8759,-0.8763,-0.8767,-0.877,-0.8784,-0.8789,-0.8732,-0.8732,-0.8732,0,0,-0.8667,-0.8668,-0.8676,-0.8687,-0.869,-0.8702,-0.8682,-0.8696,-0.8706,-0.8689,-0.8708,-0.8709,-0.8713,-0.8737,-0.8747,-0.8738,-0.8785,-0.877,-0.8773,-0.8774,-0.8787,-0.8792,-0.8797,-0.8733,-0.8733,-0.8733,0,0,-0.8704,-0.8706,-0.8724,-0.8727,-0.8731,-0.8728,-0.8732,-0.8734,-0.8734,-0.8752,-0.874,-0.8751,-0.877,-0.8773,-0.8778,-0.8815,-0.8806,-0.8818,-0.8841,-0.8854,-0.8858,-0.8862,-0.8876,-0.8881,-0.8821,-0.8821,-0.8822,0,-0.8725,-0.8744,-0.8735,-0.875,-0.8755,-0.874,-0.8758,-0.8762,-0.8769,-0.8773,-0.8763,-0.8785,-0.8787,-0.8811,-0.882,-0.8824,-0.8829,-0.8819,-0.8858,-0.8862,-0.8866,-0.8879,-0.8884,-0.8823,-0.8823,-0.8823,-0.8823,0,-0.8769,-0.8782,-0.8796,-0.8803,-0.8809,-0.8826,-0.882,-0.8827,-0.8821,-0.8818,-0.8837,-0.8839,-0.8849,-0.8854,-0.8848,-0.8876,-0.8871,-0.886,-0.8842,-0.8873,-0.8885,-0.889,-0.8825,-0.8825,-0.8824,-0.8824,0,0,-0.8824,-0.8825,-0.883,-0.8832,-0.8835,-0.8845,-0.886,-0.8869,-0.8876,-0.8881,-0.8894,-0.8909,-0.8899,-0.8903,-0.8898,-0.8909,-0.8939,-0.8897,-0.8897,-0.8905,-0.897,-0.8979,-0.8985,-0.8932,-0.8933,-0.8934,-0.897,0,-0.8862,-0.8888,-0.888,-0.8907,-0.8918,-0.8903,-0.8917,-0.892,-0.8918,-0.8927,-0.8924,-0.8936,-0.8921,-0.8924,-0.8934,-0.8933,-0.8952,-0.893,-0.8944,-0.8945,-0.8944,-0.8991,-0.9,-0.9034,-0.8974,-0.8975,-0.8976,0,-0.8909,-0.8915,-0.8943,-0.8943,-0.8947,-0.896,-0.8966,-0.8975,-0.8978,-0.8976,-0.8981,-0.8972,-0.8987,-0.8969,-0.8989,-0.8975,-0.898,-0.898,-0.8981,-0.8982,-0.8963,-0.8994,-0.9045,-0.905,-0.8983,-0.8982,-0.8982,0,-0.8947,-0.8962,-0.898,-0.8983,-0.8983,-0.8992,-0.8992,-0.8994,-0.8999,-0.9005,-0.9009,-0.9017,-0.9021,-0.9027,-0.9021,-0.9008,-0.9042,-0.9024,-0.9041,-0.9041,-0.9049,-0.9049,-0.9103,-0.9052,-0.9052,-0.9052,-0.9052,0,-0.899,-0.9007,-0.8997,-0.9008,-0.9027,-0.9017,-0.9036,-0.9035,-0.9037,-0.9047,-0.9035,-0.9045,-0.9036,-0.9045,-0.904,-0.9058,-0.906,-0.9058,-0.9057,-0.906,-0.906,-0.9064,-0.9062,-0.9053,-0.9053,-0.9052,-0.9052,0,-0.9036,-0.9029,-0.9048,-0.9046,-0.9046,-0.906,-0.9058,-0.9069,-0.9065,-0.9079,-0.9081,-0.9076,-0.9086,-0.908,-0.9091,-0.9087,-0.911,-0.9105,-0.9109,-0.9108,-0.9126,-0.9125,-0.9184,-0.9191,-0.9135,-0.9136,-0.9136,0,-0.9064,-0.9077,-0.9076,-0.9082,-0.9083,-0.9093,-0.9098,-0.9089,-0.9095,-0.9098,-0.9108,-0.9117,-0.9124,-0.9141,-0.9138,-0.9146,-0.9142,-0.9162,-0.9143,-0.9145,-0.9142,-0.9142,-0.9143,-0.9166,-0.9167,-0.9167,-0.9168,0,-0.9115,-0.9111,-0.9118,-0.9125,-0.9131,-0.9136,-0.914,-0.9145,-0.9136,-0.9143,-0.9153,-0.9158,-0.9168,-0.9178,-0.9184,-0.9185,-0.9175,-0.9173,-0.9178,-0.9181,-0.9183,-0.9183,-0.912,-0.9172,-0.9172,-0.9171,-0.9171,-0.9171,-0.9153,-0.9164,-0.9164,-0.9173,-0.9174,-0.9178,-0.9187,-0.9184,-0.9192,-0.92,-0.9193,-0.9206,-0.9207,-0.9214,-0.9216,-0.9225,-0.9217,-0.9224,-0.9225,-0.9227,-0.923,-0.9181,-0.9226,-0.9226,-0.9226,-0.9226,-0.9226,0,-0.9204,-0.9203,-0.9211,-0.9216,-0.9223,-0.9212,-0.9215,-0.9221,-0.9232,-0.9234,-0.924,-0.9252,-0.926,-0.9257,-0.9265,-0.9273,-0.9268,-0.9275,-0.9275,-0.9275,-0.9237,-0.9232,-0.9279,-0.9279,-0.9279,-0.9278,-0.9278,-0.9278,-0.9231,-0.9248,-0.9244,-0.9261,-0.926,-0.9271,-0.9274,-0.9277,-0.9279,-0.9291,-0.9298,-0.9296,-0.9296,-0.9303,-0.931,-0.9309,-0.9313,-0.9321,-0.9319,-0.9283,-0.9278,-0.9273,-0.9269,-0.9322,-0.9322,-0.9356,-0.9357,-0.9357]},{"header":{"parameterUnit":"m.s-1","parameterCategory":1,"la1":30.2991,"la2":30.254,"lo1":-89.0895,"lo2":-89.0444,"dy":0.0017,"dx":0.0017,"nx":28,"ny":28,"refTime":"2024-03-17T21:00:00:Z","depth":0,"parameterNumber":3,"parameterNumberName":"V-component_of_WINDS"},"data":[0,0,0,0,0,0,0,0,0,0,0,0,0,0,0,0,0,0,0,0,0,0,0,0,0,0,0,0,0,0,0,0,0,0,0,0,0,0,0,0,0,0,0,0,0,0,0,0,0,0,0,0,0,0,0,0,0,0,-4.7341,-4.7341,0,-4.7366,-4.7366,-4.7366,-4.7287,-4.7285,-4.7283,-4.728,-4.7304,-4.7307,-4.7309,0,0,0,0,0,0,0,0,0,0,0,0,0,-4.7222,-4.7225,-4.7341,-4.7341,-4.7342,-4.7366,-4.7366,-4.7366,-4.7288,-4.7285,-4.7282,-4.7279,-4.7303,-4.7306,-4.731,0,0,0,0,0,0,0,0,0,0,0,0,0,-4.7263,-4.7226,-4.7341,-4.7305,-4.7302,-4.7366,-4.7366,-4.7367,-4.7288,-4.7285,-4.7281,-4.7278,-4.7302,-4.7306,-4.731,-4.7408,0,0,-4.7323,-4.7325,0,0,0,0,0,0,0,0,-4.7261,-4.7268,-4.731,-4.7308,-4.7305,-4.732,-4.7333,-4.7381,-4.7289,-4.7294,-4.728,-4.7276,-4.7312,-4.7315,-4.7328,-4.741,-4.7411,-4.7324,-4.7326,-4.7328,-4.7329,0,0,0,0,0,0,0,-4.7258,-4.7266,-4.7351,-4.7311,-4.7308,-4.7287,-4.7289,-4.7342,-4.7322,-4.7293,-4.7287,-4.7291,-4.731,-4.7324,-4.7328,-4.7411,-4.7323,-4.7327,-4.733,-4.7332,-4.7574,-4.7577,0,0,0,0,0,0,-4.726,-4.7264,-4.735,-4.7351,-4.7274,-4.7292,-4.7294,-4.7319,-4.7322,-4.7319,-4.7294,-4.7288,-4.7318,-4.7323,-4.7328,-4.7443,-4.7328,-4.7332,-4.7334,-4.757,-4.7574,-4.7579,0,0,0,0,0,0,-4.7258,-4.7269,-4.7349,-4.7306,-4.7315,-4.7298,-4.7326,-4.7321,-4.7335,-4.7323,-4.7319,-4.7312,-4.7315,-4.7322,-4.7389,-4.7442,-4.7334,-4.7338,-4.7565,-4.7571,-4.7577,-4.7674,0,0,0,0,0,0,-4.7255,-4.7269,-4.7307,-4.7308,-4.7318,-4.7411,-4.7329,-4.7324,-4.7343,-4.7334,-4.7339,-4.7336,-4.7313,-4.7383,-4.7393,-4.7446,-4.7341,-4.756,-4.7568,-4.7575,-4.7666,-4.7682,-4.7696,0,0,0,0,0,-4.7251,-4.7333,-4.7309,-4.732,-4.7365,-4.7414,-4.7419,-4.7392,-4.7347,-4.7385,-4.7377,-4.7336,-4.7435,-4.7391,-4.7401,-4.7457,-4.7557,-4.7566,-4.7574,-4.7659,-4.7679,-4.7696,0,0,0,0,0,0,-4.7337,-4.7332,-4.7306,-4.739,-4.7403,-4.74,-4.7447,-4.7414,-4.7439,-4.743,-4.7394,-4.7396,-4.7469,-4.7469,-4.742,-4.7551,-4.7488,-4.7499,-4.7549,-4.7568,-4.7583,-4.7581,-4.7345,0,0,0,0,0,-4.7366,-4.7407,-4.74,-4.7475,-4.7483,-4.7464,-4.7484,-4.7462,-4.7474,-4.7479,-4.7476,-4.7488,-4.7522,-4.7545,-4.7575,-4.7665,-4.7665,-4.7708,-4.7724,-4.7736,-4.7746,-4.7793,-4.7812,-4.7607,-4.7607,-4.7607,0,0,-4.7426,-4.7428,-4.7456,-4.7493,-4.75,-4.7542,-4.7469,-4.7517,-4.7548,-4.7486,-4.7549,-4.7547,-4.7558,-4.7637,-4.7672,-4.764,-4.7803,-4.7747,-4.7758,-4.7761,-4.7804,-4.7824,-4.7841,-4.7613,-4.7612,-4.7611,0,0,-4.7557,-4.7563,-4.7626,-4.7635,-4.7647,-4.7634,-4.7649,-4.7652,-4.7648,-4.7711,-4.7665,-4.7701,-4.776,-4.7769,-4.7782,-4.7916,-4.7879,-4.7927,-4.8007,-4.8053,-4.8069,-4.8083,-4.813,-4.8148,-4.7937,-4.7937,-4.7938,0,-4.763,-4.7693,-4.7663,-4.7714,-4.7731,-4.7677,-4.7739,-4.7749,-4.7771,-4.7783,-4.7747,-4.782,-4.7824,-4.7904,-4.7936,-4.7949,-4.7964,-4.7926,-4.8069,-4.8083,-4.8096,-4.814,-4.8158,-4.7943,-4.7942,-4.7942,-4.7941,0,-4.7781,-4.7826,-4.7875,-4.7897,-4.792,-4.7976,-4.7954,-4.798,-4.7956,-4.7946,-4.801,-4.8013,-4.8042,-4.806,-4.8036,-4.8136,-4.8116,-4.8075,-4.8011,-4.8122,-4.8163,-4.818,-4.7951,-4.7949,-4.7948,-4.7946,0,0,-4.7967,-4.7972,-4.7991,-4.8,-4.8009,-4.8043,-4.8096,-4.8126,-4.8149,-4.8165,-4.8209,-4.826,-4.8222,-4.8237,-4.8214,-4.8254,-4.8359,-4.8208,-4.8208,-4.8236,-4.8469,-4.8499,-4.8519,-4.8335,-4.8338,-4.8341,-4.8468,0,-4.8096,-4.8189,-4.8163,-4.8256,-4.8295,-4.8244,-4.8291,-4.8301,-4.8294,-4.8326,-4.8316,-4.8353,-4.8301,-4.8309,-4.8347,-4.8339,-4.8406,-4.8329,-4.8374,-4.8376,-4.8373,-4.8541,-4.8573,-4.8693,-4.8484,-4.8486,-4.8488,0,-4.8258,-4.8281,-4.8378,-4.838,-4.8396,-4.8439,-4.8463,-4.8495,-4.8505,-4.8496,-4.8513,-4.8481,-4.8533,-4.8469,-4.8539,-4.8488,-4.8505,-4.8504,-4.8507,-4.851,-4.8439,-4.8548,-4.8731,-4.8749,-4.8513,-4.8511,-4.851,0,-4.8384,-4.8439,-4.8504,-4.8513,-4.8518,-4.8549,-4.8552,-4.8558,-4.8577,-4.8599,-4.8611,-4.8638,-4.8652,-4.8673,-4.865,-4.8605,-4.8724,-4.8658,-4.8717,-4.8718,-4.8744,-4.8743,-4.8932,-4.8756,-4.8756,-4.8756,-4.8755,0,-4.8529,-4.8591,-4.856,-4.86,-4.8667,-4.8636,-4.8702,-4.8699,-4.8706,-4.8743,-4.8701,-4.8737,-4.8704,-4.8737,-4.8718,-4.8779,-4.8786,-4.878,-4.8774,-4.8784,-4.8785,-4.8794,-4.8785,-4.876,-4.8759,-4.8758,-4.8758,0,-4.8681,-4.8663,-4.873,-4.8729,-4.873,-4.8779,-4.8777,-4.8813,-4.8802,-4.885,-4.886,-4.8842,-4.8879,-4.8858,-4.8895,-4.8882,-4.8961,-4.8945,-4.8958,-4.8954,-4.9014,-4.9009,-4.9216,-4.9241,-4.905,-4.9052,-4.9053,0,-4.8775,-4.8821,-4.8824,-4.8847,-4.8853,-4.889,-4.8909,-4.888,-4.8902,-4.8916,-4.8951,-4.8984,-4.9008,-4.9069,-4.9059,-4.9087,-4.907,-4.9141,-4.9074,-4.9082,-4.9071,-4.9068,-4.9072,-4.9154,-4.9157,-4.9158,-4.916,0,-4.8944,-4.8933,-4.8963,-4.899,-4.9014,-4.9034,-4.905,-4.907,-4.9041,-4.9068,-4.9105,-4.9124,-4.9162,-4.9195,-4.9219,-4.9221,-4.9186,-4.9181,-4.9196,-4.9206,-4.9212,-4.9209,-4.8995,-4.9176,-4.9175,-4.9174,-4.9173,-4.9172,-4.9069,-4.9107,-4.9115,-4.915,-4.9159,-4.9175,-4.9209,-4.9202,-4.9233,-4.9261,-4.9242,-4.9286,-4.9294,-4.9322,-4.9328,-4.9361,-4.9333,-4.9355,-4.9361,-4.9366,-4.9375,-4.9207,-4.9366,-4.9365,-4.9365,-4.9364,-4.9364,0,-4.9235,-4.9238,-4.927,-4.9294,-4.9321,-4.9286,-4.9302,-4.9326,-4.9365,-4.9376,-4.9401,-4.9443,-4.9475,-4.9468,-4.9496,-4.9524,-4.9508,-4.9532,-4.953,-4.953,-4.9399,-4.9383,-4.9544,-4.9544,-4.9544,-4.9544,-4.9544,-4.9544,-4.9325,-4.9387,-4.9377,-4.9443,-4.9445,-4.9488,-4.9499,-4.9513,-4.9522,-4.9571,-4.9597,-4.9592,-4.9595,-4.9623,-4.9651,-4.9647,-4.966,-4.9689,-4.9681,-4.9558,-4.954,-4.9523,-4.9507,-4.9692,-4.9693,-4.9809,-4.981,-4.9811]}]]